Location: Fuglau
(48.6333°N, 15.5500°E)
Time: 18:14:25
(UTC+00:00)

STARLINK-1048 - Pass Details

Date: 27 February 2020
Orbit: 549 x 550 km, 53.0° (Epoch: 28 March)

Event Time Altitude Azimuth Distance (km) Brightness Sun altitude
Rises 17:07:42 0° 269° (W) 2,718 9.8 -5.8°
Reaches altitude 10° 17:10:00 10° 275° (W) 1,826 8.0 -6.2°
Maximum altitude 17:14:02 48° 351° (N) 725 4.3 -6.8°
Drops below altitude 10° 17:18:04 10° 67° (ENE) 1,831 5.7 -7.5°
Enters shadow 17:18:23 - 68° (ENE) 1,948 5.8 -7.5°
